Location: ?????????
(38.5999°N, 22.7695°E)
Time: 11:00:54
(UTC+00:00)

ATLAS 2AS CENTAUR R/B - Pass Details

Date: 23 May 2024
Orbit: 1018 x 1193 km, 63.7° (Epoch: 24 June)

Event Time Altitude Azimuth Distance (km) Brightness Sun altitude
Rises 01:35:30 0° 329° (NNW) 3,874 5.8 -15.9°
Reaches altitude 10° 01:38:15 10° 334° (NNW) 2,892 5.2 -15.5°
Maximum altitude 01:44:56 57° 52° (NE) 1,207 3.4 -14.6°
Drops below altitude 10° 01:51:24 10° 131° (SE) 2,801 5.0 -13.7°
Sets 01:54:01 0° 135° (SE) 3,744 5.6 -13.3°
